| time (UTC) | temp F | wind direction | speed MPH | gust MPH | rain 1hr in | rain 24hr in | rain mn in | humidity % | barometer mb |
| 20260906130737 | 83 | 228 | 3.0 | 7.0 | 0.00 | 0.00 | 0.00 | 87 | 1013.4 |
| 20260906130232 | 82 | 205 | 2.0 | 3.0 | 0.00 | 0.00 | 0.00 | 89 | 1013.3 |
| 20260906125731 | 81 | 230 | 2.0 | 6.0 | 0.00 | 0.00 | 0.00 | 90 | 1013.2 |
| 20260906125229 | 81 | 219 | 2.0 | 5.0 | 0.00 | 0.00 | 0.00 | 91 | 1013.2 |
| 20260906124724 | 80 | 231 | 4.0 | 7.0 | 0.00 | 0.00 | 0.00 | 91 | 1013.1 |
| 20260906124220 | 79 | 3 | 1.0 | 7.0 | 0.00 | 0.00 | 0.00 | 91 | 1013.1 |
| 20260906123718 | 78 | 244 | 4.0 | 7.0 | 0.00 | 0.00 | 0.00 | 91 | 1013.1 |
| 20260906123214 | 78 | 226 | 2.0 | 6.0 | 0.00 | 0.00 | 0.00 | 91 | 1013.1 |
| 20260906122713 | 78 | 243 | 2.0 | 5.0 | 0.00 | 0.00 | 0.00 | 91 | 1013.1 |
| 20260906122208 | 77 | 193 | 0.0 | 5.0 | 0.00 | 0.00 | 0.00 | 91 | 1012.8 |
| 20260906121705 | 77 | 247 | 3.0 | 4.0 | 0.00 | 0.00 | 0.00 | 91 | 1013.0 |
| 20260906121201 | 77 | 250 | 1.0 | 4.0 | 0.00 | 0.00 | 0.00 | 91 | 1012.8 |
| 20260906120657 | 77 | 254 | 2.0 | 3.0 | 0.00 | 0.00 | 0.00 | 91 | 1013.0 |
| 20260906120153 | 77 | 234 | 2.0 | 4.0 | 0.00 | 0.00 | 0.00 | 91 | 1013.1 |
| 20260906115648 | 76 | 289 | 0.0 | 2.0 | 0.00 | 0.00 | 0.00 | 91 | 1013.3 |
| 20260906115144 | 76 | 320 | 0.0 | 2.0 | 0.00 | 0.00 | 0.00 | 91 | 1013.3 |
| 20260906114643 | 76 | 300 | 0.0 | 0.0 | 0.00 | 0.00 | 0.00 | 91 | 1013.4 |
| 20260906114138 | 76 | 278 | 0.0 | 2.0 | 0.00 | 0.00 | 0.00 | 91 | 1013.3 |
| 20260906113637 | 76 | 269 | 0.0 | 2.0 | 0.00 | 0.00 | 0.00 | 91 | 1013.3 |
| 20260906113132 | 76 | 275 | 2.0 | 2.0 | 0.00 | 0.00 | 0.00 | 91 | 1013.4 |
| 20260906112631 | 76 | 283 | 0.0 | 1.0 | 0.00 | 0.00 | 0.00 | 91 | 1013.2 |
| 20260906112129 | 76 | 165 | 0.0 | 1.0 | 0.00 | 0.00 | 0.00 | 91 | 1013.0 |
| 20260906111627 | 76 | 267 | 0.0 | 2.0 | 0.00 | 0.00 | 0.00 | 91 | 1013.0 |
| 20260906111117 | 76 | 307 | 0.0 | 1.0 | 0.00 | 0.00 | 0.00 | 91 | 1012.9 |
| 20260906110611 | 76 | 172 | 0.0 | 1.0 | 0.00 | 0.00 | 0.00 | 91 | 1012.8 |
| 20260906110106 | 76 | 289 | 0.0 | 2.0 | 0.00 | 0.00 | 0.00 | 91 | 1012.6 |
| 20260906105601 | 76 | 213 | 0.0 | 2.0 | 0.00 | 0.00 | 0.00 | 91 | 1012.4 |
| 20260906105057 | 76 | 280 | 1.0 | 1.0 | 0.00 | 0.00 | 0.00 | 91 | 1012.4 |
| 20260906104556 | 76 | 318 | 0.0 | 2.0 | 0.00 | 0.00 | 0.00 | 91 | 1012.2 |
| 20260906104050 | 76 | 289 | 0.0 | 1.0 | 0.00 | 0.00 | 0.00 | 91 | 1012.2 |
| 20260906103548 | 76 | 220 | 0.0 | 2.0 | 0.00 | 0.00 | 0.00 | 91 | 1012.0 |
| 20260906103043 | 77 | 102 | 0.0 | 2.0 | 0.00 | 0.00 | 0.00 | 91 | 1012.0 |
| 20260906102537 | 77 | 209 | 0.0 | 1.0 | 0.00 | 0.00 | 0.00 | 91 | 1012.0 |
| 20260906102032 | 77 | 240 | 0.0 | 4.0 | 0.00 | 0.00 | 0.00 | 91 | 1012.0 |
| 20260906101527 | 77 | 304 | 1.0 | 2.0 | 0.00 | 0.00 | 0.00 | 91 | 1012.0 |
| 20260906101022 | 77 | 260 | 0.0 | 2.0 | 0.00 | 0.00 | 0.00 | 91 | 1012.0 |
| 20260906100518 | 77 | 228 | 0.0 | 3.0 | 0.00 | 0.00 | 0.00 | 91 | 1012.1 |
| 20260906100012 | 77 | 243 | 0.0 | 1.0 | 0.00 | 0.00 | 0.00 | 91 | 1012.0 |
| 20260906095507 | 77 | 11 | 0.0 | 4.0 | 0.00 | 0.00 | 0.00 | 91 | 1012.0 |
| 20260906095003 | 77 | 7 | 1.0 | 5.0 | 0.00 | 0.00 | 0.00 | 91 | 1012.1 |
| 20260906094501 | 77 | 243 | 1.0 | 9.0 | 0.00 | 0.00 | 0.00 | 91 | 1012.0 |
| 20260906093957 | 77 | 247 | 2.0 | 4.0 | 0.00 | 0.00 | 0.00 | 91 | 1012.0 |
| 20260906093454 | 77 | 223 | 2.0 | 3.0 | 0.00 | 0.00 | 0.00 | 91 | 1011.8 |
| 20260906092953 | 77 | 261 | 1.0 | 3.0 | 0.00 | 0.00 | 0.00 | 91 | 1012.0 |
| 20260906092453 | 77 | 237 | 2.0 | 3.0 | 0.00 | 0.00 | 0.00 | 91 | 1012.0 |
| 20260906091948 | 77 | 254 | 0.0 | 2.0 | 0.00 | 0.00 | 0.00 | 91 | 1011.8 |
| 20260906091444 | 77 | 289 | 1.0 | 2.0 | 0.00 | 0.00 | 0.00 | 91 | 1011.9 |
| 20260906090941 | 77 | 245 | 2.0 | 2.0 | 0.00 | 0.00 | 0.00 | 91 | 1012.1 |
| 20260906090436 | 77 | 180 | 0.0 | 2.0 | 0.00 | 0.00 | 0.00 | 91 | 1012.1 |
| 20260906085935 | 77 | 282 | 0.0 | 2.0 | 0.00 | 0.00 | 0.00 | 91 | 1012.0 |
| 20260906085435 | 77 | 282 | 0.0 | 3.0 | 0.00 | 0.00 | 0.00 | 91 | 1011.8 |
| 20260906084934 | 77 | 311 | 0.0 | 1.0 | 0.00 | 0.00 | 0.00 | 91 | 1011.7 |
| 20260906084429 | 77 | 282 | 1.0 | 1.0 | 0.00 | 0.00 | 0.00 | 91 | 1011.9 |
| 20260906083928 | 78 | 197 | 0.0 | 1.0 | 0.00 | 0.00 | 0.00 | 91 | 1011.7 |
| 20260906083424 | 78 | 281 | 0.0 | 2.0 | 0.00 | 0.00 | 0.00 | 91 | 1011.8 |
| 20260906082923 | 78 | 132 | 0.0 | 2.0 | 0.00 | 0.00 | 0.00 | 91 | 1011.9 |
| 20260906082418 | 78 | 127 | 0.0 | 1.0 | 0.00 | 0.00 | 0.00 | 91 | 1011.8 |
| 20260906081914 | 78 | 227 | 0.0 | 1.0 | 0.00 | 0.00 | 0.00 | 91 | 1011.6 |
| 20260906081409 | 78 | 199 | 0.0 | 2.0 | 0.00 | 0.00 | 0.00 | 91 | 1011.7 |
| 20260906080905 | 78 | 221 | 1.0 | 5.0 | 0.00 | 0.00 | 0.00 | 91 | 1011.8 |
| 20260906080402 | 78 | 215 | 2.0 | 4.0 | 0.00 | 0.00 | 0.00 | 91 | 1011.8 |
| 20260906075901 | 78 | 222 | 2.0 | 3.0 | 0.00 | 0.00 | 0.00 | 91 | 1011.7 |
| 20260906075356 | 78 | 240 | 0.0 | 2.0 | 0.00 | 0.00 | 0.00 | 91 | 1011.9 |
| 20260906074851 | 78 | 154 | 0.0 | 2.0 | 0.00 | 0.00 | 0.00 | 91 | 1011.9 |
| 20260906074345 | 78 | 215 | 0.0 | 3.0 | 0.00 | 0.00 | 0.00 | 91 | 1011.8 |
| 20260906073844 | 79 | 235 | 2.0 | 3.0 | 0.00 | 0.00 | 0.00 | 91 | 1012.0 |
| 20260906073339 | 79 | 232 | 3.0 | 5.0 | 0.00 | 0.00 | 0.00 | 91 | 1011.8 |
| 20260906072836 | 79 | 172 | 0.0 | 3.0 | 0.00 | 0.00 | 0.00 | 91 | 1011.9 |
| 20260906072331 | 79 | 243 | 1.0 | 4.0 | 0.00 | 0.00 | 0.00 | 91 | 1011.9 |
| 20260906071827 | 79 | 247 | 2.0 | 5.0 | 0.00 | 0.00 | 0.00 | 91 | 1011.9 |
| 20260906071327 | 79 | 238 | 3.0 | 5.0 | 0.00 | 0.00 | 0.00 | 91 | 1012.1 |
| 20260906070823 | 79 | 229 | 3.0 | 4.0 | 0.00 | 0.00 | 0.00 | 91 | 1012.1 |
| 20260906070320 | 79 | 269 | 0.0 | 1.0 | 0.00 | 0.00 | 0.00 | 91 | 1012.0 |
| 20260906065820 | 79 | 253 | 1.0 | 3.0 | 0.00 | 0.00 | 0.00 | 91 | 1012.0 |
| 20260906065315 | 79 | 257 | 0.0 | 3.0 | 0.00 | 0.00 | 0.00 | 91 | 1011.9 |
| 20260906064810 | 79 | 246 | 1.0 | 3.0 | 0.00 | 0.00 | 0.00 | 91 | 1012.0 |
| 20260906064306 | 78 | 197 | 1.0 | 3.0 | 0.00 | 0.00 | 0.00 | 91 | 1011.9 |
| 20260906063801 | 78 | 14 | 0.0 | 2.0 | 0.00 | 0.00 | 0.00 | 91 | 1011.9 |
| 20260906063256 | 78 | 254 | 4.0 | 5.0 | 0.00 | 0.00 | 0.00 | 91 | 1011.9 |
| 20260906062751 | 78 | 227 | 0.0 | 3.0 | 0.00 | 0.00 | 0.00 | 91 | 1012.1 |
| 20260906062250 | 78 | 231 | 0.0 | 2.0 | 0.00 | 0.00 | 0.00 | 91 | 1012.3 |
| 20260906061746 | 79 | 139 | 0.0 | 1.0 | 0.00 | 0.00 | 0.00 | 91 | 1012.2 |
| 20260906061243 | 79 | 254 | 0.0 | 3.0 | 0.00 | 0.00 | 0.00 | 91 | 1012.2 |
| 20260906060737 | 79 | 258 | 1.0 | 3.0 | 0.00 | 0.00 | 0.00 | 91 | 1012.4 |
| 20260906060235 | 79 | 220 | 0.0 | 3.0 | 0.00 | 0.00 | 0.00 | 91 | 1012.3 |
| 20260906055730 | 79 | 219 | 3.0 | 5.0 | 0.00 | 0.00 | 0.00 | 91 | 1012.2 |
| 20260906055220 | 79 | 278 | 0.0 | 4.0 | 0.00 | 0.00 | 0.00 | 91 | 1012.4 |
| 20260906054716 | 79 | 287 | 1.0 | 3.0 | 0.00 | 0.00 | 0.00 | 91 | 1012.5 |
| 20260906054216 | 79 | 298 | 0.0 | 2.0 | 0.00 | 0.00 | 0.00 | 91 | 1012.6 |
| 20260906053712 | 79 | 236 | 1.0 | 5.0 | 0.00 | 0.00 | 0.00 | 91 | 1012.5 |
| 20260906053208 | 79 | 235 | 0.0 | 3.0 | 0.00 | 0.00 | 0.00 | 91 | 1012.6 |
| 20260906052702 | 79 | 271 | 0.0 | 3.0 | 0.00 | 0.00 | 0.00 | 91 | 1012.5 |
| 20260906052159 | 79 | 325 | 0.0 | 2.0 | 0.00 | 0.00 | 0.00 | 91 | 1012.8 |
| 20260906051656 | 79 | 254 | 0.0 | 4.0 | 0.00 | 0.00 | 0.00 | 91 | 1012.7 |
| 20260906051155 | 79 | 235 | 1.0 | 3.0 | 0.00 | 0.00 | 0.00 | 91 | 1012.7 |
| 20260906050651 | 79 | 325 | 0.0 | 2.0 | 0.00 | 0.00 | 0.00 | 91 | 1012.9 |
| 20260906050146 | 79 | 22 | 0.0 | 3.0 | 0.00 | 0.00 | 0.00 | 91 | 1012.7 |
| 20260906045644 | 79 | 236 | 0.0 | 2.0 | 0.00 | 0.00 | 0.00 | 91 | 1012.6 |
| 20260906045140 | 79 | 215 | 0.0 | 2.0 | 0.00 | 0.00 | 0.00 | 91 | 1012.7 |
| 20260906044636 | 79 | 311 | 0.0 | 2.0 | 0.00 | 0.00 | 0.00 | 91 | 1012.8 |
| 20260906044131 | 78 | 247 | 0.0 | 2.0 | 0.00 | 0.00 | 0.00 | 91 | 1012.6 |
| 20260906043627 | 78 | 222 | 0.0 | 2.0 | 0.00 | 0.00 | 0.00 | 91 | 1012.7 |
| 20260906043122 | 78 | 12 | 0.0 | 2.0 | 0.00 | 0.00 | 0.00 | 91 | 1012.6 |
| 20260906042621 | 78 | 294 | 0.0 | 1.0 | 0.00 | 0.00 | 0.00 | 91 | 1012.6 |
| 20260906042115 | 78 | 215 | 0.0 | 0.0 | 0.00 | 0.00 | 0.00 | 91 | 1012.7 |
| 20260906041612 | 78 | 311 | 0.0 | 1.0 | 0.00 | 0.00 | 0.00 | 91 | 1012.8 |
| 20260906041106 | 78 | 318 | 0.0 | 0.0 | 0.00 | 0.00 | 0.00 | 91 | 1012.6 |
| 20260906040601 | 78 | 318 | 0.0 | 0.0 | 0.00 | 0.00 | 0.00 | 91 | 1012.8 |
| 20260906040057 | 78 | 352 | 0.0 | 0.0 | 0.00 | 0.00 | 0.00 | 91 | 1013.1 |
| 20260906035552 | 78 | 352 | 0.0 | 0.0 | 0.00 | 0.01 | 0.01 | 91 | 1013.0 |
| 20260906035048 | 79 | 47 | 0.0 | 1.0 | 0.00 | 0.01 | 0.01 | 91 | 1013.0 |
| 20260906034548 | 79 | 321 | 0.0 | 1.0 | 0.00 | 0.01 | 0.01 | 91 | 1012.8 |
| 20260906034042 | 79 | 352 | 0.0 | 0.0 | 0.00 | 0.01 | 0.01 | 91 | 1012.9 |
| 20260906033538 | 79 | 345 | 0.0 | 1.0 | 0.00 | 0.01 | 0.01 | 91 | 1013.1 |
| 20260906033033 | 79 | 269 | 0.0 | 1.0 | 0.00 | 0.01 | 0.01 | 91 | 1013.1 |
| 20260906032530 | 79 | 278 | 0.0 | 1.0 | 0.00 | 0.01 | 0.01 | 91 | 1013.5 |
| 20260906032030 | 79 | 307 | 0.0 | 0.0 | 0.00 | 0.01 | 0.01 | 91 | 1013.4 |
| 20260906031526 | 79 | 307 | 0.0 | 1.0 | 0.00 | 0.01 | 0.01 | 91 | 1013.6 |
| 20260906031021 | 79 | 254 | 0.0 | 1.0 | 0.00 | 0.01 | 0.01 | 91 | 1013.6 |
| 20260906030520 | 79 | 300 | 0.0 | 0.0 | 0.00 | 0.01 | 0.01 | 91 | 1013.5 |
| 20260906030020 | 79 | 300 | 0.0 | 0.0 | 0.00 | 0.01 | 0.01 | 91 | 1013.4 |
| 20260906025520 | 79 | 326 | 0.0 | 1.0 | 0.00 | 0.01 | 0.01 | 91 | 1013.5 |
| 20260906025018 | 79 | 294 | 0.0 | 0.0 | 0.00 | 0.01 | 0.01 | 91 | 1013.4 |
| 20260906024514 | 79 | 294 | 0.0 | 1.0 | 0.00 | 0.01 | 0.01 | 91 | 1013.5 |
| 20260906024014 | 79 | 336 | 0.0 | 1.0 | 0.00 | 0.01 | 0.01 | 91 | 1013.4 |
| 20260906023510 | 79 | 289 | 0.0 | 0.0 | 0.00 | 0.01 | 0.01 | 91 | 1013.5 |
| 20260906023005 | 79 | 282 | 0.0 | 1.0 | 0.00 | 0.01 | 0.01 | 91 | 1013.5 |
| 20260906022500 | 79 | 324 | 0.0 | 0.0 | 0.00 | 0.01 | 0.01 | 91 | 1013.5 |
| 20260906021955 | 79 | 324 | 0.0 | 0.0 | 0.00 | 0.01 | 0.01 | 91 | 1013.5 |
| 20260906021450 | 79 | 307 | 0.0 | 1.0 | 0.00 | 0.01 | 0.01 | 91 | 1013.2 |
| 20260906020950 | 80 | 336 | 0.0 | 1.0 | 0.00 | 0.01 | 0.01 | 91 | 1013.1 |
| 20260906020444 | 80 | 22 | 0.0 | 0.0 | 0.00 | 0.01 | 0.01 | 91 | 1013.3 |
| 20260906015938 | 80 | 22 | 0.0 | 1.0 | 0.00 | 0.01 | 0.01 | 91 | 1013.3 |
| 20260906015432 | 80 | 294 | 0.0 | 1.0 | 0.00 | 0.01 | 0.01 | 91 | 1013.1 |
| 20260906014927 | 80 | 318 | 0.0 | 0.0 | 0.00 | 0.01 | 0.01 | 91 | 1013.0 |
| 20260906014426 | 80 | 310 | 0.0 | 1.0 | 0.00 | 0.01 | 0.01 | 91 | 1013.0 |
| 20260906013922 | 79 | 307 | 0.0 | 1.0 | 0.00 | 0.01 | 0.01 | 91 | 1013.0 |
| 20260906013417 | 79 | 289 | 0.0 | 0.0 | 0.00 | 0.01 | 0.01 | 91 | 1013.0 |
| 20260906012913 | 79 | 289 | 0.0 | 1.0 | 0.00 | 0.01 | 0.01 | 91 | 1012.9 |
| 20260906012408 | 79 | 336 | 0.0 | 0.0 | 0.00 | 0.01 | 0.01 | 91 | 1012.7 |
| 20260906011907 | 80 | 282 | 0.0 | 1.0 | 0.00 | 0.01 | 0.01 | 91 | 1012.6 |
| 20260906011402 | 80 | 22 | 0.0 | 0.0 | 0.00 | 0.01 | 0.01 | 91 | 1012.6 |
| 20260906010858 | 80 | 307 | 0.0 | 1.0 | 0.00 | 0.01 | 0.01 | 91 | 1012.4 |
| 20260906010353 | 80 | 294 | 0.0 | 1.0 | 0.00 | 0.01 | 0.01 | 91 | 1012.5 |
| 20260906005849 | 80 | 345 | 0.0 | 1.0 | 0.00 | 0.01 | 0.01 | 91 | 1012.3 |
| 20260906005348 | 80 | 0 | 0.0 | 0.0 | 0.00 | 0.01 | 0.01 | 91 | 1012.3 |
| 20260906004847 | 80 | 0 | 0.0 | 0.0 | 0.00 | 0.01 | 0.01 | 91 | 1012.2 |
| 20260906004347 | 80 | 318 | 0.0 | 1.0 | 0.00 | 0.01 | 0.01 | 91 | 1012.2 |
| 20260906003842 | 80 | 352 | 0.0 | 1.0 | 0.00 | 0.01 | 0.01 | 91 | 1012.2 |
| 20260906003337 | 80 | 318 | 0.0 | 0.0 | 0.00 | 0.01 | 0.01 | 91 | 1012.0 |
| 20260906002833 | 81 | 318 | 0.0 | 0.0 | 0.00 | 0.01 | 0.01 | 91 | 1012.1 |
| 20260906002332 | 81 | 318 | 0.0 | 0.0 | 0.00 | 0.01 | 0.01 | 91 | 1012.2 |
| 20260906001828 | 82 | 350 | 0.0 | 2.0 | 0.00 | 0.01 | 0.01 | 91 | 1012.0 |
| 20260906001323 | 82 | 282 | 0.0 | 2.0 | 0.00 | 0.01 | 0.01 | 90 | 1011.9 |
| 20260906000818 | 82 | 318 | 0.0 | 0.0 | 0.00 | 0.01 | 0.01 | 90 | 1011.9 |
| 20260906000313 | 82 | 306 | 0.0 | 1.0 | 0.00 | 0.01 | 0.01 | 90 | 1011.8 |
| 20260905235808 | 83 | 318 | 0.0 | 2.0 | 0.00 | 0.01 | 0.01 | 89 | 1011.6 |
| 20260905235306 | 83 | 14 | 0.0 | 1.0 | 0.00 | 0.01 | 0.01 | 89 | 1011.6 |
| 20260905234758 | 83 | 35 | 0.0 | 2.0 | 0.00 | 0.01 | 0.01 | 89 | 1011.8 |
| 20260905234253 | 84 | 60 | 0.0 | 0.0 | 0.00 | 0.01 | 0.01 | 89 | 1011.7 |
| 20260905233748 | 84 | 300 | 0.0 | 0.0 | 0.00 | 0.01 | 0.01 | 89 | 1012.0 |
| 20260905233248 | 84 | 23 | 0.0 | 3.0 | 0.00 | 0.01 | 0.01 | 88 | 1012.0 |
| 20260905232747 | 85 | 53 | 0.0 | 2.0 | 0.00 | 0.01 | 0.01 | 87 | 1011.8 |
| 20260905232244 | 85 | 336 | 0.0 | 0.0 | 0.00 | 0.01 | 0.01 | 87 | 1012.0 |
| 20260905231739 | 85 | 345 | 0.0 | 0.0 | 0.00 | 0.01 | 0.01 | 85 | 1011.8 |
| 20260905231234 | 86 | 345 | 0.0 | 1.0 | 0.00 | 0.01 | 0.01 | 85 | 1011.8 |
| 20260905230731 | 86 | 0 | 0.0 | 2.0 | 0.00 | 0.01 | 0.01 | 83 | 1011.7 |
| 20260905230228 | 87 | 254 | 0.0 | 2.0 | 0.00 | 0.01 | 0.01 | 83 | 1011.9 |
| 20260905225727 | 87 | 89 | 0.0 | 2.0 | 0.00 | 0.01 | 0.01 | 81 | 1012.2 |
| 20260905225223 | 88 | 231 | 0.0 | 0.0 | 0.00 | 0.01 | 0.01 | 79 | 1012.1 |
| 20260905224721 | 88 | 231 | 0.0 | 2.0 | 0.00 | 0.01 | 0.01 | 79 | 1012.1 |
| 20260905224217 | 88 | 254 | 0.0 | 2.0 | 0.00 | 0.01 | 0.01 | 78 | 1012.1 |
| 20260905223713 | 88 | 254 | 0.0 | 2.0 | 0.00 | 0.01 | 0.01 | 79 | 1012.2 |
| 20260905223210 | 88 | 220 | 0.0 | 3.0 | 0.00 | 0.01 | 0.01 | 78 | 1012.2 |
| 20260905222705 | 89 | 219 | 0.0 | 2.0 | 0.00 | 0.01 | 0.01 | 78 | 1012.2 |
| 20260905222205 | 90 | 268 | 0.0 | 3.0 | 0.00 | 0.01 | 0.01 | 75 | 1012.3 |
| 20260905221700 | 92 | 268 | 0.0 | 2.0 | 0.00 | 0.01 | 0.01 | 73 | 1012.2 |
| 20260905221157 | 92 | 254 | 0.0 | 2.0 | 0.00 | 0.01 | 0.01 | 69 | 1012.2 |
| 20260905220652 | 93 | 237 | 3.0 | 5.0 | 0.00 | 0.01 | 0.01 | 67 | 1012.3 |
| 20260905220149 | 92 | 221 | 0.0 | 2.0 | 0.00 | 0.01 | 0.01 | 75 | 1012.3 |
| 20260905215643 | 93 | 202 | 0.0 | 1.0 | 0.00 | 0.01 | 0.01 | 71 | 1012.2 |
| 20260905215139 | 92 | 254 | 0.0 | 2.0 | 0.00 | 0.01 | 0.01 | 75 | 1012.3 |
| 20260905214635 | 92 | 254 | 0.0 | 2.0 | 0.00 | 0.01 | 0.01 | 73 | 1012.4 |
| 20260905214134 | 90 | 239 | 1.0 | 2.0 | 0.00 | 0.01 | 0.01 | 74 | 1012.5 |
| 20260905213630 | 90 | 249 | 1.0 | 2.0 | 0.00 | 0.01 | 0.01 | 77 | 1012.4 |
| 20260905213125 | 91 | 218 | 0.0 | 2.0 | 0.00 | 0.01 | 0.01 | 72 | 1012.2 |
| 20260905212620 | 91 | 217 | 0.0 | 2.0 | 0.00 | 0.01 | 0.01 | 69 | 1012.4 |
| 20260905212120 | 91 | 242 | 2.0 | 4.0 | 0.00 | 0.01 | 0.01 | 70 | 1012.4 |
| 20260905211615 | 93 | 224 | 3.0 | 5.0 | 0.00 | 0.01 | 0.01 | 67 | 1012.5 |
| 20260905211110 | 96 | 311 | 0.0 | 5.0 | 0.00 | 0.01 | 0.01 | 62 | 1012.6 |
| 20260905210607 | 96 | 249 | 3.0 | 7.0 | 0.00 | 0.01 | 0.01 | 66 | 1012.4 |
| 20260905205600 | 94 | 208 | 1.0 | 4.0 | 0.00 | 0.01 | 0.01 | 69 | 1012.6 |
| 20260905205054 | 94 | 248 | 2.0 | 4.0 | 0.00 | 0.01 | 0.01 | 66 | 1012.4 |
| 20260905204549 | 92 | 220 | 3.0 | 7.0 | 0.00 | 0.01 | 0.01 | 68 | 1012.5 |
| 20260905204044 | 94 | 234 | 3.0 | 8.0 | 0.00 | 0.01 | 0.01 | 66 | 1012.4 |
| 20260905203544 | 92 | 189 | 0.0 | 9.0 | 0.00 | 0.01 | 0.01 | 67 | 1012.4 |
| 20260905203039 | 91 | 223 | 2.0 | 6.0 | 0.00 | 0.01 | 0.01 | 70 | 1012.4 |
| 20260905202534 | 92 | 257 | 2.0 | 7.0 | 0.00 | 0.01 | 0.01 | 68 | 1012.4 |
| 20260905202030 | 92 | 242 | 2.0 | 9.0 | 0.00 | 0.01 | 0.01 | 70 | 1012.3 |
| 20260905201526 | 94 | 225 | 6.0 | 11.0 | 0.00 | 0.01 | 0.01 | 66 | 1012.4 |
| 20260905201024 | 94 | 224 | 5.0 | 9.0 | 0.00 | 0.01 | 0.01 | 66 | 1012.4 |
| 20260905200520 | 93 | 231 | 5.0 | 11.0 | 0.00 | 0.01 | 0.01 | 66 | 1012.3 |
| 20260905200020 | 94 | 254 | 4.0 | 9.0 | 0.00 | 0.01 | 0.01 | 67 | 1012.4 |
| 20260905195515 | 94 | 279 | 4.0 | 8.0 | 0.00 | 0.01 | 0.01 | 66 | 1012.3 |
| 20260905195010 | 93 | 225 | 1.0 | 7.0 | 0.00 | 0.01 | 0.01 | 68 | 1012.5 |
| 20260905194509 | 94 | 227 | 5.0 | 8.0 | 0.00 | 0.01 | 0.01 | 66 | 1012.4 |
| 20260905194010 | 93 | 214 | 3.0 | 8.0 | 0.00 | 0.01 | 0.01 | 68 | 1012.4 |
| 20260905193510 | 95 | 316 | 3.0 | 5.0 | 0.00 | 0.01 | 0.01 | 66 | 1012.5 |
| 20260905193005 | 93 | 237 | 3.0 | 7.0 | 0.00 | 0.01 | 0.01 | 72 | 1012.6 |
| 20260905192500 | 91 | 221 | 3.0 | 10.0 | 0.00 | 0.01 | 0.01 | 71 | 1012.9 |
| 20260905191956 | 93 | 271 | 1.0 | 6.0 | 0.00 | 0.01 | 0.01 | 69 | 1013.0 |
| 20260905191450 | 91 | 6 | 2.0 | 4.0 | 0.00 | 0.01 | 0.01 | 71 | 1013.1 |
| 20260905190949 | 92 | 241 | 0.0 | 7.0 | 0.00 | 0.01 | 0.01 | 70 | 1013.3 |
| 20260905190447 | 91 | 209 | 3.0 | 7.0 | 0.00 | 0.01 | 0.01 | 72 | 1013.2 |
| 20260905185946 | 91 | 226 | 4.0 | 18.0 | 0.00 | 0.01 | 0.01 | 71 | 1013.1 |
| 20260905185441 | 93 | 228 | 2.0 | 5.0 | 0.00 | 0.01 | 0.01 | 70 | 1013.1 |
| 20260905184940 | 93 | 241 | 3.0 | 7.0 | 0.00 | 0.01 | 0.01 | 70 | 1013.1 |
| 20260905184440 | 91 | 173 | 1.0 | 5.0 | 0.00 | 0.01 | 0.01 | 73 | 1013.2 |
| 20260905183938 | 92 | 318 | 2.0 | 4.0 | 0.00 | 0.01 | 0.01 | 70 | 1013.2 |
| 20260905183433 | 92 | 329 | 2.0 | 3.0 | 0.00 | 0.01 | 0.01 | 70 | 1013.2 |
| 20260905182928 | 91 | 226 | 4.0 | 9.0 | 0.00 | 0.01 | 0.01 | 72 | 1013.2 |
| 20260905182427 | 93 | 233 | 4.0 | 4.0 | 0.00 | 0.01 | 0.01 | 70 | 1013.5 |
| 20260905181923 | 92 | 200 | 1.0 | 7.0 | 0.00 | 0.01 | 0.01 | 70 | 1013.4 |
| 20260905181418 | 91 | 245 | 3.0 | 5.0 | 0.00 | 0.01 | 0.01 | 73 | 1013.6 |
| 20260905180917 | 92 | 96 | 1.0 | 4.0 | 0.00 | 0.01 | 0.01 | 70 | 1013.5 |
| 20260905180413 | 90 | 238 | 5.0 | 8.0 | 0.00 | 0.01 | 0.01 | 74 | 1013.6 |
| 20260905175912 | 91 | 234 | 5.0 | 9.0 | 0.00 | 0.01 | 0.01 | 74 | 1013.5 |
| 20260905175412 | 91 | 222 | 4.0 | 6.0 | 0.00 | 0.01 | 0.01 | 72 | 1013.5 |
| 20260905174907 | 91 | 218 | 7.0 | 9.0 | 0.00 | 0.01 | 0.01 | 72 | 1013.7 |
| 20260905174403 | 92 | 12 | 1.0 | 6.0 | 0.00 | 0.01 | 0.01 | 73 | 1013.8 |
| 20260905173859 | 91 | 231 | 3.0 | 5.0 | 0.00 | 0.01 | 0.01 | 72 | 1013.9 |
| 20260905173355 | 89 | 222 | 6.0 | 10.0 | 0.00 | 0.01 | 0.01 | 75 | 1013.9 |
| 20260905172850 | 91 | 208 | 0.0 | 5.0 | 0.00 | 0.01 | 0.01 | 73 | 1014.0 |
| 20260905172347 | 90 | 23 | 4.0 | 8.0 | 0.00 | 0.01 | 0.01 | 73 | 1014.1 |
| 20260905171844 | 90 | 349 | 3.0 | 5.0 | 0.00 | 0.01 | 0.01 | 73 | 1014.1 |
| 20260905171340 | 89 | 344 | 0.0 | 5.0 | 0.00 | 0.01 | 0.01 | 77 | 1014.4 |
| 20260905170836 | 89 | 248 | 3.0 | 9.0 | 0.00 | 0.01 | 0.01 | 75 | 1014.3 |
| 20260905170332 | 89 | 233 | 2.0 | 5.0 | 0.00 | 0.01 | 0.01 | 77 | 1014.5 |
| 20260905165831 | 90 | 247 | 5.0 | 6.0 | 0.00 | 0.01 | 0.01 | 76 | 1014.7 |
| 20260905165326 | 88 | 244 | 3.0 | 7.0 | 0.00 | 0.01 | 0.01 | 77 | 1014.9 |
| 20260905164821 | 91 | 236 | 2.0 | 3.0 | 0.00 | 0.01 | 0.01 | 76 | 1014.8 |
| 20260905164316 | 89 | 230 | 4.0 | 5.0 | 0.00 | 0.01 | 0.01 | 79 | 1014.8 |
| 20260905163811 | 87 | 42 | 0.0 | 4.0 | 0.00 | 0.01 | 0.01 | 80 | 1015.0 |
| 20260905163308 | 87 | 291 | 0.0 | 6.0 | 0.00 | 0.01 | 0.01 | 82 | 1015.1 |
| 20260905162803 | 89 | 339 | 0.0 | 3.0 | 0.00 | 0.01 | 0.01 | 81 | 1015.3 |
| 20260905162305 | 89 | 22 | 2.0 | 4.0 | 0.00 | 0.01 | 0.01 | 82 | 1015.3 |
| 20260905161757 | 88 | 344 | 3.0 | 3.0 | 0.00 | 0.01 | 0.01 | 82 | 1015.3 |
| 20260905161256 | 87 | 229 | 3.0 | 3.0 | 0.00 | 0.01 | 0.01 | 84 | 1015.5 |
| 20260905160754 | 86 | 257 | 2.0 | 3.0 | 0.02 | 0.01 | 0.01 | 85 | 1015.4 |
| 20260905160249 | 86 | 15 | 0.0 | 3.0 | 0.02 | 0.01 | 0.01 | 85 | 1015.7 |
| 20260905155744 | 87 | 139 | 0.0 | 3.0 | 0.00 | 0.00 | 0.00 | 82 | 1015.7 |
| 20260905155243 | 87 | 333 | 0.0 | 5.0 | 0.00 | 0.00 | 0.00 | 82 | 1015.7 |
| 20260905154737 | 86 | 2 | 2.0 | 5.0 | 0.00 | 0.00 | 0.00 | 83 | 1015.8 |
| 20260905154233 | 85 | 177 | 2.0 | 7.0 | 0.00 | 0.00 | 0.00 | 85 | 1015.8 |
| 20260905153729 | 84 | 351 | 2.0 | 4.0 | 0.00 | 0.00 | 0.00 | 87 | 1015.8 |
| 20260905153224 | 84 | 231 | 0.0 | 4.0 | 0.00 | 0.00 | 0.00 | 89 | 1016.0 |
| 20260905152719 | 82 | 345 | 0.0 | 3.0 | 0.00 | 0.00 | 0.00 | 89 | 1015.9 |
| 20260905152218 | 82 | 229 | 3.0 | 5.0 | 0.00 | 0.00 | 0.00 | 89 | 1015.8 |
| 20260905151713 | 83 | 353 | 0.0 | 5.0 | 0.00 | 0.00 | 0.00 | 89 | 1016.0 |
| 20260905151209 | 83 | 240 | 2.0 | 7.0 | 0.00 | 0.00 | 0.00 | 89 | 1015.9 |
| 20260905150704 | 82 | 273 | 2.0 | 4.0 | 0.00 | 0.00 | 0.00 | 91 | 1015.9 |
| 20260905150203 | 82 | 4 | 1.0 | 3.0 | 0.00 | 0.00 | 0.00 | 91 | 1016.0 |
| 20260905145701 | 80 | 7 | 2.0 | 5.0 | 0.00 | 0.00 | 0.00 | 91 | 1015.9 |
| 20260905145201 | 81 | 222 | 2.0 | 4.0 | 0.00 | 0.00 | 0.00 | 91 | 1015.9 |
| 20260905144654 | 80 | 221 | 3.0 | 5.0 | 0.00 | 0.00 | 0.00 | 91 | 1015.9 |
| 20260905144149 | 80 | 213 | 3.0 | 5.0 | 0.00 | 0.00 | 0.00 | 91 | 1016.1 |
| 20260905143648 | 79 | 336 | 2.0 | 3.0 | 0.00 | 0.00 | 0.00 | 91 | 1016.0 |
| 20260905143143 | 79 | 233 | 2.0 | 4.0 | 0.00 | 0.00 | 0.00 | 91 | 1015.9 |
| 20260905142642 | 79 | 216 | 0.0 | 4.0 | 0.00 | 0.00 | 0.00 | 91 | 1015.8 |
| 20260905142137 | 79 | 247 | 2.0 | 3.0 | 0.00 | 0.00 | 0.00 | 91 | 1015.9 |
| 20260905141636 | 78 | 234 | 3.0 | 6.0 | 0.00 | 0.00 | 0.00 | 91 | 1015.8 |
| 20260905141133 | 78 | 209 | 0.0 | 4.0 | 0.00 | 0.00 | 0.00 | 91 | 1015.8 |
| 20260905140628 | 78 | 246 | 4.0 | 5.0 | 0.00 | 0.00 | 0.00 | 91 | 1015.9 |
| 20260905140127 | 78 | 234 | 1.0 | 5.0 | 0.00 | 0.00 | 0.00 | 91 | 1015.9 |
| 20260905135622 | 77 | 232 | 2.0 | 5.0 | 0.00 | 0.00 | 0.00 | 91 | 1015.8 |
| 20260905135118 | 77 | 227 | 0.0 | 4.0 | 0.00 | 0.00 | 0.00 | 91 | 1015.9 |
| 20260905134613 | 77 | 224 | 3.0 | 6.0 | 0.00 | 0.00 | 0.00 | 91 | 1015.9 |
| 20260905134111 | 77 | 224 | 3.0 | 4.0 | 0.00 | 0.00 | 0.00 | 91 | 1015.8 |
| 20260905133607 | 77 | 246 | 1.0 | 4.0 | 0.00 | 0.00 | 0.00 | 91 | 1015.7 |
| 20260905133106 | 77 | 5 | 0.0 | 3.0 | 0.00 | 0.00 | 0.00 | 91 | 1015.8 |
| 20260905132606 | 77 | 216 | 2.0 | 3.0 | 0.00 | 0.00 | 0.00 | 91 | 1015.8 |
| 20260905132100 | 77 | 235 | 3.0 | 4.0 | 0.00 | 0.00 | 0.00 | 91 | 1015.8 |
| 20260905131556 | 77 | 223 | 0.0 | 2.0 | 0.00 | 0.00 | 0.00 | 91 | 1015.6 |
| 20260905131051 | 76 | 223 | 1.0 | 2.0 | 0.00 | 0.00 | 0.00 | 91 | 1015.6 |